Surface/Precipitation History
04/23/2014 21:33  to  4/24/2014 21:33
Change End Date:
Date/Time
(MDT)
Sf
Temp Chem Water Layer Surface Precipitation
Sf Sub Frz Factor Pct Depth IcePct Cond Salin Type Intens Accum Rate
04/24/2014 21:31 Wet 45.7F 51F 32F 5 0% 0.00 in 0% 0 mhos 0 None None - -
04/24/2014 21:24 Wet 46.0F 51F 32F 5 0% 0.00 in 0% 0 mhos 1 None None - -
04/24/2014 21:21 Wet 45.7F 51F 32F 5 0% 0.00 in 0% 0 mhos 1 None None - -
04/24/2014 21:14 Wet 46.4F 51F 32F 5 0% 0.00 in 0% 0 mhos 1 None None - -
04/24/2014 21:04 Wet 47.1F 50F 32F 5 0% 0.00 in 0% 0 mhos 1 None None - -
04/24/2014 21:01 Wet 47.3F 50F 32F 5 0% 0.00 in 0% 0 mhos 1 None None - -
04/24/2014 20:54 Wet 47.5F 50F 32F 5 0% 0.00 in 0% 0 mhos 2 None None - -
04/24/2014 20:50 Wet 47.7F 50F 32F 5 0% 0.00 in 0% 0 mhos 2 None None - -
04/24/2014 20:44 Wet 47.8F 50F 32F 5 0% 0.00 in 0% 0 mhos 4 None None - -
04/24/2014 20:34 Wet 48.0F 50F 32F 5 0% 0.00 in 0% 0 mhos 12 None None - -
04/24/2014 20:31 Wet 48.0F 50F 32F 5 0% 0.00 in 0% 0 mhos 13 None None - -
04/24/2014 20:23 Wet 48.9F 50F 32F 5 0% 0.00 in 0% 0 mhos 17 None None - -
04/24/2014 20:20 Wet 48.9F 50F 32F 5 0% 0.00 in 0% 0 mhos 18 None None - -
04/24/2014 20:13 Wet 49.3F 50F 32F 10 0% 0.00 in 0% 0 mhos 23 None None - -
04/24/2014 20:03 Wet 49.6F 50F 32F 5 0% 0.00 in 0% 0 mhos 28 None None - -
Date/Time
(MDT)
Sf
Temp Chem Water Layer Surface Precipitation
Sf Sub Frz Factor Pct Depth IcePct Cond Salin Type Intens Accum Rate
04/24/2014 20:01 Wet 49.6F 50F 32F 10 0% 0.00 in 0% 0 mhos 29 None None - -
04/24/2014 19:53 Wet 50.2F 50F 32F 10 0% 0.00 in 0% 0 mhos 30 None None - -
04/24/2014 19:50 Wet 49.8F 50F 32F 10 0% 0.00 in 0% 0 mhos 31 Yes - - -
04/24/2014 19:43 Wet 50.5F 50F 32F 15 0% 0.00 in 0% 0 mhos 28 None None - -
04/24/2014 19:33 Wet 50.7F 50F 32F 15 0% 0.00 in 0% 0 mhos 13 Yes - - -
04/24/2014 19:31 Wet 50.7F 50F 32F 10 0% 0.00 in 0% 0 mhos 5 Yes - - -
04/24/2014 19:23 Wet 52.2F 50F 32F 5 0% 0.00 in 0% 0 mhos 0 Yes - - -
04/24/2014 19:20 Wet 52.2F 50F 32F 5 0% 0.00 in 0% 0 mhos 0 Yes - - -
04/24/2014 19:13 Wet 53.4F 50F 32F 5 0% 0.00 in 0% 0 mhos 0 Yes - - -
04/24/2014 19:03 Wet 55.2F 50F 32F 5 0% 0.00 in 0% 0 mhos 0 Yes - - -
04/24/2014 19:01 Dry 56.8F 50F - - - - - 0 mhos 0 Yes - - -
04/24/2014 18:53 Dry 58.6F 50F - - - - - 0 mhos 0 None None - -
04/24/2014 18:50 Dry 59.2F 50F - - - - - 0 mhos 0 None None - -
04/24/2014 18:43 Dry 60.6F 50F - - - - - 0 mhos 0 None None - -
04/24/2014 18:33 Dry 63.3F 50F - - - - - 0 mhos 0 None None - -
Date/Time
(MDT)
Sf
Temp Chem Water Layer Surface Precipitation
Sf Sub Frz Factor Pct Depth IcePct Cond Salin Type Intens Accum Rate
04/24/2014 18:31 Dry 63.7F 50F - - - - - 0 mhos 0 None None - -
04/24/2014 18:23 Dry 64.6F 50F - - - - - 0 mhos 0 None None - -
04/24/2014 18:20 Dry 64.6F 49F - - - - - 0 mhos 0 None None - -
04/24/2014 18:13 Dry 63.3F 49F - - - - - 0 mhos 0 Yes - - -
04/24/2014 18:03 Dry 64.0F 49F - - - - - 0 mhos 0 None None - -
04/24/2014 18:01 Dry 65.3F 49F - - - - - 0 mhos 0 None None - -
04/24/2014 17:53 Dry 66.4F 49F - - - - - 0 mhos 0 None None - -
04/24/2014 17:50 Dry 69.4F 49F - - - - - 0 mhos 0 None None - -
04/24/2014 17:43 Dry 64.0F 49F - - - - - 0 mhos 0 None None - -
04/24/2014 17:33 Dry 65.1F 49F - - - - - 0 mhos 0 None None - -
04/24/2014 17:31 Dry 65.7F 49F - - - - - 0 mhos 0 None None - -
04/24/2014 17:23 Dry 71.1F 49F - - - - - 0 mhos 0 None None - -
04/24/2014 17:20 Dry 68.4F 49F - - - - - 0 mhos 0 None None - -
04/24/2014 17:13 Dry 71.6F 49F - - - - - 0 mhos 0 None None - -
04/24/2014 17:03 Dry 70.2F 49F - - - - - 0 mhos 0 None None - -
Date/Time
(MDT)
Sf
Temp Chem Water Layer Surface Precipitation
Sf Sub Frz Factor Pct Depth IcePct Cond Salin Type Intens Accum Rate
04/24/2014 17:01 Dry 68.2F 49F - - - - - 0 mhos 0 None None - -
04/24/2014 16:53 Dry 64.9F 49F - - - - - 0 mhos 0 None None - -
04/24/2014 16:50 Dry 64.8F 49F - - - - - 0 mhos 0 None None - -
04/24/2014 16:43 Dry 64.9F 49F - - - - - 0 mhos 0 None None - -
04/24/2014 16:33 Dry 68.4F 49F - - - - - 0 mhos 0 None None - -
04/24/2014 16:31 Dry 68.4F 49F - - - - - 0 mhos 0 None None - -
04/24/2014 16:23 Dry 70.2F 49F - - - - - 0 mhos 0 None None - -
04/24/2014 16:21 Dry 70.5F 49F - - - - - 0 mhos 0 None None - -
04/24/2014 16:12 Dry 67.6F 49F - - - - - 0 mhos 0 None None - -
04/24/2014 16:02 Dry 59.7F 49F - - - - - 0 mhos 0 None None - -
04/24/2014 16:01 Dry 59.4F 49F - - - - - 0 mhos 0 None None - -
04/24/2014 15:52 Dry 58.5F 49F - - - - - 0 mhos 0 None None - -
04/24/2014 15:50 Dry 59.0F 49F - - - - - 0 mhos 0 None None - -
04/24/2014 15:42 Wet 57.7F 49F 32F 5 0% 0.00 in 0% 0 mhos 0 None None - -
04/24/2014 15:32 Wet 59.7F 49F 32F 5 0% 0.00 in 0% 0 mhos 4 None None - -
Date/Time
(MDT)
Sf
Temp Chem Water Layer Surface Precipitation
Sf Sub Frz Factor Pct Depth IcePct Cond Salin Type Intens Accum Rate
04/24/2014 15:31 Wet 59.4F 49F 32F 5 0% 0.00 in 0% 0 mhos 5 Yes - - -
04/24/2014 15:22 Wet 61.5F 49F 32F 5 0% 0.00 in 0% 0 mhos 8 Yes - - -
04/24/2014 15:20 Wet 61.3F 49F 32F 5 0% 0.00 in 0% 0 mhos 8 Yes - - -
04/24/2014 15:12 Wet 62.1F 49F 32F 5 0% 0.00 in 0% 0 mhos 20 None None - -
04/24/2014 15:02 Wet 58.8F 49F 32F 5 0% 0.00 in 0% 0 mhos 16 Yes - - -
04/24/2014 15:01 Wet 59.4F 49F 32F 5 0% 0.00 in 0% 0 mhos 17 Yes - - -
04/24/2014 14:52 Wet 60.3F 49F 32F 5 0% 0.00 in 0% 0 mhos 15 Yes - - -
04/24/2014 14:50 Wet 61.5F 49F 32F 5 0% 0.00 in 0% 0 mhos 20 Yes - - -
04/24/2014 14:42 Wet 64.0F 49F 32F 5 0% 0.00 in 0% 0 mhos 18 Yes - - -
04/24/2014 14:32 Wet 62.4F 48F 32F 5 0% 0.00 in 0% 0 mhos 18 Yes - - -
04/24/2014 14:31 Wet 62.4F 48F 32F 5 0% 0.00 in 0% 0 mhos 18 Yes - - -
04/24/2014 14:22 Wet 63.3F 48F 32F 5 0% 0.00 in 0% 0 mhos 17 None None - -
04/24/2014 14:20 Wet 63.0F 48F 32F 5 0% 0.00 in 0% 0 mhos 20 None None - -
04/24/2014 14:12 Wet 58.1F 48F 32F 5 0% 0.00 in 0% 0 mhos 19 Yes - - -
04/24/2014 14:02 Wet 57.2F 48F 32F 5 0% 0.00 in 0% 0 mhos 18 Yes - - -
Date/Time
(MDT)
Sf
Temp Chem Water Layer Surface Precipitation
Sf Sub Frz Factor Pct Depth IcePct Cond Salin Type Intens Accum Rate
04/24/2014 14:01 Wet 57.2F 48F 32F 5 0% 0.00 in 0% 0 mhos 18 Yes - - -
04/24/2014 13:52 Wet 58.6F 48F 32F 5 0% 0.00 in 0% 0 mhos 9 Yes - - -
04/24/2014 13:50 Wet 59.2F 48F 32F 5 0% 0.00 in 0% 0 mhos 9 Yes - - -
04/24/2014 13:42 Wet 60.3F 48F 32F 5 0% 0.00 in 0% 0 mhos 16 Yes - - -
04/24/2014 13:32 Wet 59.2F 48F 32F 5 0% 0.00 in 0% 0 mhos 12 Yes - - -
04/24/2014 13:31 Wet 59.2F 48F 32F 5 0% 0.00 in 0% 0 mhos 12 Yes - - -
04/24/2014 13:22 Wet 57.9F 48F 32F 10 0% 0.00 in 0% 0 mhos 17 Yes - - -
04/24/2014 13:20 Wet 58.3F 48F 32F 5 0% 0.00 in 0% 0 mhos 17 Yes - - -
04/24/2014 13:12 Wet 57.7F 48F 32F 5 0% 0.00 in 0% 0 mhos 18 Yes - - -
04/24/2014 13:02 Wet 56.3F 48F 32F 5 0% 0.00 in 0% 0 mhos 14 Yes - - -
04/24/2014 13:01 Wet 56.1F 48F 32F 5 0% 0.00 in 0% 0 mhos 12 Yes - - -
04/24/2014 12:52 Wet 60.1F 48F 32F 5 0% 0.00 in 0% 0 mhos 10 Yes - - -
04/24/2014 12:50 Wet 60.6F 48F 32F 5 0% 0.00 in 0% 0 mhos 11 Yes - - -
04/24/2014 12:42 Wet 58.1F 48F 32F 5 0% 0.00 in 0% 0 mhos 15 Yes - - -
04/24/2014 12:32 Wet 55.4F 48F 32F 5 0% 0.00 in 0% 0 mhos 19 Yes - - -
Date/Time
(MDT)
Sf
Temp Chem Water Layer Surface Precipitation
Sf Sub Frz Factor Pct Depth IcePct Cond Salin Type Intens Accum Rate
04/24/2014 12:31 Wet 55.2F 48F 32F 5 0% 0.00 in 0% 0 mhos 19 Yes - - -
04/24/2014 12:21 Wet 55.2F 48F 32F 5 0% 0.00 in 0% 0 mhos 22 Yes - - -
04/24/2014 12:21 Wet 55.2F 48F 32F 5 0% 0.00 in 0% 0 mhos 19 Yes - - -
04/24/2014 12:11 Wet 56.8F 48F 32F 5 0% 0.00 in 0% 0 mhos 10 Yes - - -
04/24/2014 12:01 Wet 57.4F 48F 32F 5 0% 0.00 in 0% 0 mhos 3 Yes - - -
04/24/2014 12:01 Wet 57.6F 48F 32F 5 0% 0.00 in 0% 0 mhos 2 Yes - - -
04/24/2014 11:51 Wet 55.6F 48F 32F 5 0% 0.20 in 0% 0 mhos 1 Yes - - -
04/24/2014 11:50 Wet 54.5F 48F 32F 5 0% 0.20 in 0% 0 mhos 0 Yes - - -
04/24/2014 11:41 Wet 55.2F 48F 32F 5 0% 0.00 in 0% 0 mhos 0 Yes - - -
04/24/2014 11:31 Wet 55.8F 48F 32F 5 0% 0.00 in 0% 0 mhos 0 Yes - - -
04/24/2014 11:31 Wet 55.0F 48F 32F 5 0% 0.00 in 0% 0 mhos 0 Yes - - -
04/24/2014 11:21 Dry 55.8F 48F - - - - - 0 mhos 0 Yes - - -
04/24/2014 11:20 Dry 55.8F 48F - - - - - 0 mhos 0 Yes - - -
04/24/2014 11:11 Dry 56.3F 48F - - - - - 0 mhos 0 Yes - - -
04/24/2014 11:01 Dry 56.3F 48F - - - - - 0 mhos 0 Yes - - -
Date/Time
(MDT)
Sf
Temp Chem Water Layer Surface Precipitation
Sf Sub Frz Factor Pct Depth IcePct Cond Salin Type Intens Accum Rate
04/24/2014 11:01 Dry 56.3F 48F - - - - - 0 mhos 0 Yes - - -
04/24/2014 10:51 Dry 56.1F 48F - - - - - 0 mhos 0 Yes - - -
04/24/2014 10:50 Dry 56.7F 48F - - - - - 0 mhos 0 Yes - - -
04/24/2014 10:41 Dry 56.7F 48F - - - - - 0 mhos 0 Yes - - -
04/24/2014 10:31 Dry 56.8F 48F - - - - - 0 mhos 0 Yes - - -
04/24/2014 10:31 Dry 56.8F 48F - - - - - 0 mhos 0 Yes - - -
04/24/2014 10:21 Dry 56.3F 48F - - - - - 0 mhos 0 None None - -
04/24/2014 10:20 Dry 56.3F 48F - - - - - 0 mhos 0 Yes - - -
04/24/2014 10:11 Dry 54.0F 48F - - - - - 0 mhos 0 Yes - - -
04/24/2014 10:01 Dry 51.6F 48F - - - - - 0 mhos 0 Yes - - -
04/24/2014 10:01 Dry 52.5F 48F - - - - - 0 mhos 0 Yes - - -
04/24/2014 09:51 Dry 51.6F 48F - - - - - 0 mhos 0 Yes - - -
04/24/2014 09:50 Dry 51.6F 48F - - - - - 0 mhos 0 Yes - - -
04/24/2014 09:40 Dry 50.2F 48F - - - - - 0 mhos 0 None None - -
04/24/2014 09:31 Dry 49.6F 49F - - - - - 0 mhos 0 None None - -
Date/Time
(MDT)
Sf
Temp Chem Water Layer Surface Precipitation
Sf Sub Frz Factor Pct Depth IcePct Cond Salin Type Intens Accum Rate
04/24/2014 09:30 Dry 49.6F 49F - - - - - 0 mhos 0 None None - -
04/24/2014 09:21 Dry 47.8F 49F - - - - - 0 mhos 0 None None - -
04/24/2014 09:20 Dry 47.5F 49F - - - - - 0 mhos 0 None None - -
04/24/2014 09:10 Dry 46.6F 49F - - - - - 0 mhos 0 Yes - - -
04/24/2014 09:01 Dry 45.3F 49F - - - - - 0 mhos 0 Yes - - -
04/24/2014 09:00 Dry 45.1F 49F - - - - - 0 mhos 0 Yes - - -
04/24/2014 08:50 Dry 44.6F 49F - - - - - 0 mhos 0 Yes - - -
04/24/2014 08:50 Dry 44.6F 49F - - - - - 0 mhos 0 Yes - - -
04/24/2014 08:40 Wet 45.0F 49F 32F 5 0% 0.00 in 0% 0 mhos 0 Yes - - -
04/24/2014 08:31 Wet 44.8F 49F 32F 5 0% 0.00 in 0% 0 mhos 1 Yes - - -
04/24/2014 08:30 Wet 44.6F 49F 32F 5 0% 0.00 in 0% 0 mhos 1 Yes - - -
04/24/2014 08:20 Wet 42.8F 49F 32F 5 0% 0.00 in 0% 0 mhos 2 Yes - - -
04/24/2014 08:20 Wet 42.8F 49F 32F 5 0% 0.00 in 0% 0 mhos 2 Yes - - -
04/24/2014 08:10 Wet 41.0F 49F 32F 5 0% 0.00 in 0% 0 mhos 5 Yes - - -
04/24/2014 08:01 Wet 40.8F 49F 32F 5 0% 0.00 in 0% 0 mhos 7 Yes - - -
Date/Time
(MDT)
Sf
Temp Chem Water Layer Surface Precipitation
Sf Sub Frz Factor Pct Depth IcePct Cond Salin Type Intens Accum Rate
04/24/2014 08:00 Wet 40.8F 49F 32F 5 0% 0.00 in 0% 0 mhos 7 Yes - - -
04/24/2014 07:50 Wet 39.4F 49F 32F 5 0% 0.00 in 0% 0 mhos 8 Yes - - -
04/24/2014 07:50 Wet 39.4F 49F 32F 5 0% 0.00 in 0% 0 mhos 8 Yes - - -
04/24/2014 07:40 Wet 38.8F 49F 32F 5 0% 0.00 in 0% 0 mhos 11 Yes - - -
04/24/2014 07:31 Wet 38.5F 49F 32F 5 0% 0.00 in 0% 0 mhos 12 Yes - - -
04/24/2014 07:30 Wet 38.5F 49F 32F 5 0% 0.00 in 0% 0 mhos 12 Yes - - -
04/24/2014 07:20 Wet 38.7F 49F 32F 5 0% 0.00 in 0% 0 mhos 12 Yes - - -
04/24/2014 07:20 Wet 38.7F 49F 32F 5 0% 0.00 in 0% 0 mhos 12 Yes - - -
04/24/2014 07:10 Wet 38.3F 49F 32F 5 0% 0.00 in 0% 0 mhos 12 None None - -
04/24/2014 07:01 Wet 37.8F 49F 32F 5 0% 0.00 in 0% 0 mhos 12 None None - -
04/24/2014 07:00 Wet 37.8F 49F 32F 5 0% 0.00 in 0% 0 mhos 11 None None - -
04/24/2014 06:50 Wet 37.6F 49F 32F 5 0% 0.00 in 0% 0 mhos 13 Yes - - -
04/24/2014 06:49 Wet 37.6F 49F 32F 5 0% 0.00 in 0% 0 mhos 13 Yes - - -
04/24/2014 06:39 Wet 37.4F 49F 32F 5 0% 0.00 in 0% 0 mhos 13 Yes - - -
04/24/2014 06:31 Wet 37.4F 49F 32F 5 0% 0.00 in 0% 0 mhos 12 Yes - - -
Date/Time
(MDT)
Sf
Temp Chem Water Layer Surface Precipitation
Sf Sub Frz Factor Pct Depth IcePct Cond Salin Type Intens Accum Rate
04/24/2014 06:29 Wet 37.4F 49F 32F 5 0% 0.00 in 0% 0 mhos 12 Yes - - -
04/24/2014 06:20 Wet 37.4F 50F 32F 5 0% 0.00 in 0% 0 mhos 11 Yes - - -
04/24/2014 06:19 Wet 37.4F 49F 32F 5 0% 0.00 in 0% 0 mhos 11 Yes - - -
04/24/2014 06:09 Wet 37.2F 50F 32F 5 0% 0.00 in 0% 0 mhos 15 Yes - - -
04/24/2014 06:01 Wet 37.0F 50F 32F 5 0% 0.00 in 0% 0 mhos 15 Yes - - -
04/24/2014 05:59 Wet 37.0F 50F 32F 5 0% 0.00 in 0% 0 mhos 15 Yes - - -
04/24/2014 05:50 Wet 36.5F 50F 32F 5 0% 0.00 in 0% 0 mhos 15 Yes - - -
04/24/2014 05:49 Wet 36.5F 50F 32F 5 0% 0.00 in 0% 0 mhos 15 Yes - - -
04/24/2014 05:39 Wet 36.0F 50F 32F 5 0% 0.00 in 0% 0 mhos 15 Yes - - -
04/24/2014 05:31 Wet 35.2F 50F 32F 5 0% 0.00 in 0% 0 mhos 14 Yes - - -
04/24/2014 05:29 Wet 35.2F 50F 32F 5 0% 0.00 in 0% 0 mhos 14 Yes - - -
04/24/2014 05:20 Wet 35.6F 50F 32F 5 0% 0.00 in 0% 0 mhos 12 Yes - - -
04/24/2014 05:19 Wet 35.6F 50F 32F 5 0% 0.00 in 0% 0 mhos 12 Yes - - -
04/24/2014 05:09 Wet 36.1F 50F 32F 5 0% 0.00 in 0% 0 mhos 8 Yes - - -
04/24/2014 05:01 Wet 36.1F 50F 32F 5 0% 0.00 in 0% 0 mhos 12 Yes - - -
Date/Time
(MDT)
Sf
Temp Chem Water Layer Surface Precipitation
Sf Sub Frz Factor Pct Depth IcePct Cond Salin Type Intens Accum Rate
04/24/2014 04:59 Wet 36.1F 50F 32F 5 0% 0.00 in 0% 0 mhos 11 Yes - - -
04/24/2014 04:50 Wet 36.7F 50F 32F 5 0% 0.00 in 0% 0 mhos 8 Yes - - -
04/24/2014 04:49 Wet 36.9F 50F 32F 5 0% 0.00 in 0% 0 mhos 8 Yes - - -
04/24/2014 04:39 Wet 36.9F 50F 32F 5 0% 0.00 in 0% 0 mhos 7 Yes - - -
04/24/2014 04:31 Wet 36.7F 50F 32F 5 0% 0.00 in 0% 0 mhos 6 Yes - - -
04/24/2014 04:29 Wet 36.9F 50F 32F 5 0% 0.00 in 0% 0 mhos 6 Yes - - -
04/24/2014 04:20 Wet 37.0F 50F 32F 5 0% 0.00 in 0% 0 mhos 5 Yes - - -
04/24/2014 04:19 Wet 37.2F 50F 32F 5 0% 0.00 in 0% 0 mhos 5 Yes - - -
04/24/2014 04:09 Wet 37.8F 50F 32F 5 0% 0.00 in 0% 0 mhos 13 Yes - - -
04/24/2014 04:01 Wet 37.9F 50F 32F 5 0% 0.00 in 0% 0 mhos 11 Yes - - -
04/24/2014 03:59 Wet 37.9F 50F 32F 5 0% 0.00 in 0% 0 mhos 11 Yes - - -
04/24/2014 03:50 Wet 37.8F 51F 32F 5 0% 0.00 in 0% 0 mhos 11 Yes - - -
04/24/2014 03:49 Wet 37.8F 50F 32F 5 0% 0.00 in 0% 0 mhos 10 Yes - - -
04/24/2014 03:39 Wet 37.4F 51F 32F 5 0% 0.00 in 0% 0 mhos 7 Yes - - -
04/24/2014 03:29 Wet 37.9F 51F 32F 5 0% 0.00 in 0% 0 mhos 7 Yes - - -
Date/Time
(MDT)
Sf
Temp Chem Water Layer Surface Precipitation
Sf Sub Frz Factor Pct Depth IcePct Cond Salin Type Intens Accum Rate
04/24/2014 03:20 Wet 38.1F 51F 32F 5 0% 0.00 in 0% 0 mhos 6 Yes - - -
04/24/2014 03:19 Wet 38.1F 51F 32F 5 0% 0.00 in 0% 0 mhos 6 Yes - - -
04/24/2014 03:09 Wet 37.9F 51F 32F 5 0% 0.00 in 0% 0 mhos 6 Yes - - -
04/24/2014 02:59 Wet 38.1F 51F 32F 5 0% 0.00 in 0% 0 mhos 5 Yes - - -
04/24/2014 02:50 Wet 38.5F 51F 32F 5 0% 0.00 in 0% 0 mhos 5 Yes - - -
04/24/2014 02:49 Wet 38.3F 51F 32F 5 0% 0.00 in 0% 0 mhos 4 Yes - - -
04/24/2014 02:39 Wet 38.3F 51F 32F 20 0% 0.10 in 0% 0 mhos 3 Yes - - -
04/24/2014 02:29 Wet 37.9F 51F 32F 20 0% 0.10 in 0% 0 mhos 3 Yes - - -
04/24/2014 02:20 Wet 37.6F 51F 32F 20 0% 0.10 in 0% 0 mhos 3 Yes - - -
04/24/2014 02:19 Wet 37.6F 51F 32F 20 0% 0.10 in 0% 0 mhos 3 Yes - - -
04/24/2014 02:09 Wet 37.4F 51F 32F 20 0% 0.10 in 0% 0 mhos 3 Yes - - -
04/24/2014 02:02 Wet 37.4F 51F 32F 25 0% 0.10 in 0% 0 mhos 3 Yes - - -
04/24/2014 01:59 Wet 37.4F 51F 32F 25 0% 0.10 in 0% 0 mhos 3 Yes - - -
04/24/2014 01:50 Wet 37.8F 51F 32F 25 0% 0.10 in 0% 0 mhos 4 Yes - - -
04/24/2014 01:49 Wet 37.8F 51F 32F 30 0% 0.10 in 0% 0 mhos 3 Yes - - -
Date/Time
(MDT)
Sf
Temp Chem Water Layer Surface Precipitation
Sf Sub Frz Factor Pct Depth IcePct Cond Salin Type Intens Accum Rate
04/24/2014 01:39 Wet 37.8F 51F 32F 25 0% 0.10 in 0% 0 mhos 3 Yes - - -
04/24/2014 01:31 Wet 37.6F 51F 32F 25 0% 0.10 in 0% 0 mhos 3 Yes - - -
04/24/2014 01:29 Wet 37.6F 51F 32F 25 0% 0.10 in 0% 0 mhos 3 Yes - - -
04/24/2014 01:20 Wet 37.4F 51F 32F 25 0% 0.10 in 0% 0 mhos 3 Yes - - -
04/24/2014 01:18 Wet 37.6F 51F 32F 25 0% 0.10 in 0% 0 mhos 3 Yes - - -
04/24/2014 01:08 Wet 37.2F 51F 32F 20 0% 0.10 in 0% 0 mhos 3 Yes - - -
04/24/2014 01:01 Wet 37.0F 52F 32F 20 0% 0.10 in 0% 0 mhos 3 Yes - - -
04/24/2014 00:58 Wet 36.9F 52F 32F 25 0% 0.10 in 0% 0 mhos 4 Yes - - -
04/24/2014 00:50 Wet 37.6F 52F 32F 30 0% 0.10 in 0% 0 mhos 4 Yes - - -
04/24/2014 00:48 Wet 37.8F 52F 32F 30 0% 0.00 in 0% 0 mhos 6 Yes - - -
04/24/2014 00:38 Wet 37.9F 52F 32F 5 0% 0.00 in 0% 0 mhos 3 Yes - - -
04/24/2014 00:31 Wet 37.9F 52F 32F 5 0% 0.00 in 0% 0 mhos 3 Yes - - -
04/24/2014 00:28 Wet 36.7F 52F 32F 5 0% 0.00 in 0% 0 mhos 1 Yes - - -
04/24/2014 00:21 Wet 37.4F 52F 32F 25 0% 0.00 in 0% 0 mhos 5 Yes - - -
04/24/2014 00:18 Wet 37.6F 52F 32F 20 0% 0.00 in 0% 0 mhos 5 Yes - - -
Date/Time
(MDT)
Sf
Temp Chem Water Layer Surface Precipitation
Sf Sub Frz Factor Pct Depth IcePct Cond Salin Type Intens Accum Rate
04/24/2014 00:08 Wet 37.8F 52F 32F 25 0% 0.10 in 0% 0 mhos 4 Yes - - -
04/23/2014 23:58 Wet 38.5F 52F 32F 30 0% 0.10 in 0% 0 mhos 4 Yes - - -
04/23/2014 23:49 Wet 38.7F 52F 32F 35 0% 0.10 in 0% 0 mhos 4 Yes - - -
04/23/2014 23:48 Wet 38.7F 52F 32F 35 0% 0.10 in 0% 0 mhos 4 Yes - - -
04/23/2014 23:38 Wet 39.7F 52F 32F 5 0% 0.00 in 0% 0 mhos 4 Yes - - -
04/23/2014 23:31 Wet 39.6F 52F 32F 40 0% 0.10 in 0% 0 mhos 5 Yes - - -
04/23/2014 23:28 Wet 39.6F 52F 32F 45 0% 0.00 in 0% 0 mhos 7 Yes - - -
04/23/2014 23:21 Wet 39.7F 52F 32F 45 0% 0.00 in 0% 0 mhos 8 Yes - - -
04/23/2014 23:18 Wet 39.6F 52F 32F 50 0% 0.10 in 0% 0 mhos 6 Yes - - -
04/23/2014 23:08 Wet 39.7F 52F 32F 55 0% 0.00 in 0% 0 mhos 10 Yes - - -
04/23/2014 23:02 Wet 40.1F 52F 32F 55 0% 0.00 in 0% 0 mhos 11 Yes - - -
04/23/2014 22:58 Wet 40.1F 52F 32F 5 0% 0.00 in 0% 0 mhos 11 Yes - - -
04/23/2014 22:51 Wet 39.7F 52F 32F 95 0% 0.10 in 0% 0 mhos 29 Yes - - -
04/23/2014 22:48 Wet 39.7F 52F 32F 95 0% 0.10 in 0% 0 mhos 23 Yes - - -
04/23/2014 22:38 Wet 40.5F 52F 32F 35 0% 0.10 in 0% 0 mhos 4 Yes - - -
Date/Time
(MDT)
Sf
Temp Chem Water Layer Surface Precipitation
Sf Sub Frz Factor Pct Depth IcePct Cond Salin Type Intens Accum Rate
04/23/2014 22:31 Wet 40.3F 52F 32F 40 0% 0.10 in 0% 0 mhos 4 Yes - - -
04/23/2014 22:28 Wet 40.1F 52F 32F 40 0% 0.10 in 0% 0 mhos 4 Yes - - -
04/23/2014 22:21 Wet 40.1F 52F 32F 50 0% 0.10 in 0% 0 mhos 5 Yes - - -
04/23/2014 22:18 Wet 40.1F 52F 32F 45 0% 0.10 in 0% 0 mhos 5 Yes - - -
04/23/2014 22:08 Wet 42.3F 52F 32F 5 0% 0.00 in 0% 0 mhos 6 Yes - - -
04/23/2014 22:01 Wet 40.6F 52F 32F 60 0% 0.10 in 0% 0 mhos 6 Yes - - -
04/23/2014 21:58 Wet 41.4F 52F 32F 55 0% 0.10 in 0% 0 mhos 6 Yes - - -
04/23/2014 21:50 Wet 41.5F 52F 32F 70 0% 0.10 in 0% 0 mhos 7 Yes - - -
04/23/2014 21:48 Wet 42.8F 52F 32F 75 0% 0.10 in 0% 0 mhos 10 Yes - - -
04/23/2014 21:38 Wet 43.3F 52F 32F 95 0% 0.00 in 0% 0 mhos 22 Yes - - -
Change End Date:
Copyright © 1998-2005 Surface Systems, Inc.
All Rights Reserved
Send comments about the data to:
SCAN Web ® is a registered trademark of Surface Systems, Inc.
SCAN Web Version 5.6